User: anonymous   Login
Location: Unspecified
(0.0000°N, 0.0000°E)
Time: 21:25:23
(UTC+00:00)
Language:

Triad OI-1X - Orbit

View from above orbital plane
View from above orbital plane
View from above satellite
View from above satellite

Ground track
Ground track

The orbit data is extracted from the following two-line orbital elements,

1  6173U 72069A   18051.94303302 +.00000107 +00000-0 +24641-4 0  9999
2  6173 089.8808 226.6217 0051528 326.4453 149.2452 14.48867142390334
Epoch (UTC): 20 February 2018 22:37:58
Eccentricity: 0.0051528
inclination: 89.8808°
perigee height: 693 km
apogee height: 766 km
right ascension of ascending node: 226.6217°
argument of perigee: 326.4453°
revolutions per day: 14.48867142
mean anomaly at epoch: 149.2452°
orbit number at epoch: 39033

The dashed part of the orbit path shows where the satellite is in the earth's shadow,  

DLR